Precipitable_Water
0.63 0.63 0.64 0.64 0.64 0.64 0.64 0.64 0.65 0.64 0.66 0.55 0.48 0.52 0.35 0.30 0.24 0.30 0.31 0.43 0.45 0.39 0.31 0.34 0.35 0.33 0.34 0.39 0.36 0.36 0.34 0.33 0.34 0.34 0.37 0.35 0.38 0.38 0.40 0.38 0.36 0.36 0.35 0.33 0.32 0.31 0.28 0.28 0.26 0.27 0.33 0.34 0.35 0.36 0.38 0.38 0.39 0.39 0.36 0.35 0.34 0.35 0.28 0.22 0.21 0.24 0.25 0.30 0.34 0.35 0.34 0.31 0.27 0.23 0.21 0.18 0.14 0.15 0.14 0.14 0.15 0.16 0.17 0.16 0.16 0.15 0.16
0.63 0.64 0.64 0.65 0.65 0.65 0.65 0.65 0.66 0.67 0.67 0.60 0.57 0.44 0.35 0.34 0.31 0.26 0.29 0.42 0.46 0.34 0.23 0.24 0.28 0.29 0.28 0.26 0.24 0.28 0.28 0.30 0.29 0.30 0.33 0.34 0.36 0.37 0.39 0.41 0.43 0.40 0.43 0.40 0.34 0.34 0.27 0.29 0.28 0.27 0.30 0.30 0.36 0.38 0.37 0.37 0.36 0.37 0.37 0.33 0.35 0.29 0.29 0.27 0.21 0.20 0.21 0.24 0.30 0.31 0.32 0.30 0.26 0.24 0.23 0.21 0.18 0.16 0.16 0.15 0.19 0.15 0.16 0.18 0.17 0.14 0.15
0.62 0.62 0.63 0.64 0.65 0.66 0.66 0.67 0.67 0.69 0.70 0.68 0.59 0.41 0.42 0.38 0.36 0.33 0.34 0.36 0.37 0.27 0.32 0.27 0.25 0.23 0.21 0.20 0.20 0.24 0.32 0.34 0.34 0.37 0.38 0.42 0.41 0.39 0.38 0.42 0.45 0.43 0.44 0.40 0.39 0.38 0.39 0.29 0.31 0.30 0.30 0.29 0.33 0.33 0.37 0.37 0.35 0.37 0.40 0.40 0.40 0.32 0.31 0.28 0.23 0.18 0.16 0.15 0.17 0.21 0.23 0.24 0.25 0.27 0.25 0.23 0.21 0.18 0.15 0.13 0.14 0.14 0.15 0.16 0.17 0.16 0.18
0.61 0.61 0.62 0.63 0.65 0.66 0.68 0.68 0.69 0.70 0.71 0.71 0.60 0.50 0.41 0.32 0.22 0.27 0.29 0.36 0.36 0.31 0.31 0.29 0.27 0.25 0.25 0.28 0.32 0.33 0.29 0.33 0.38 0.41 0.38 0.43 0.44 0.43 0.40 0.42 0.48 0.46 0.43 0.39 0.37 0.38 0.43 0.40 0.37 0.35 0.32 0.33 0.35 0.39 0.38 0.40 0.39 0.38 0.37 0.40 0.40 0.34 0.34 0.31 0.28 0.24 0.21 0.20 0.22 0.30 0.31 0.27 0.24 0.25 0.26 0.24 0.21 0.21 0.17 0.14 0.13 0.11 0.15 0.18 0.19 0.19 0.22
0.61 0.61 0.62 0.64 0.65 0.66 0.68 0.70 0.71 0.72 0.71 0.72 0.62 0.53 0.44 0.42 0.28 0.26 0.24 0.33 0.32 0.30 0.36 0.33 0.37 0.35 0.38 0.29 0.33 0.28 0.29 0.30 0.28 0.37 0.33 0.38 0.39 0.39 0.39 0.40 0.39 0.41 0.41 0.38 0.37 0.42 0.43 0.43 0.39 0.39 0.38 0.38 0.39 0.39 0.38 0.39 0.38 0.40 0.45 0.41 0.42 0.37 0.33 0.33 0.30 0.29 0.28 0.29 0.26 0.30 0.34 0.29 0.27 0.27 0.26 0.27 0.24 0.22 0.19 0.15 0.12 0.13 0.14 0.13 0.20 0.24 0.22
0.62 0.62 0.63 0.64 0.66 0.66 0.67 0.70 0.73 0.74 0.74 0.74 0.66 0.44 0.46 0.31 0.35 0.39 0.44 0.33 0.26 0.26 0.28 0.35 0.34 0.36 0.36 0.30 0.34 0.30 0.29 0.28 0.26 0.29 0.34 0.39 0.40 0.34 0.35 0.38 0.41 0.42 0.43 0.44 0.37 0.38 0.41 0.42 0.37 0.41 0.40 0.38 0.38 0.36 0.38 0.39 0.40 0.40 0.48 0.47 0.38 0.37 0.33 0.34 0.33 0.31 0.32 0.31 0.33 0.31 0.32 0.33 0.32 0.30 0.29 0.28 0.28 0.25 0.21 0.19 0.17 0.15 0.13 0.12 0.15 0.19 0.22
0.63 0.64 0.65 0.65 0.66 0.66 0.66 0.68 0.70 0.75 0.76 0.75 0.63 0.43 0.45 0.44 0.41 0.40 0.46 0.33 0.34 0.34 0.35 0.36 0.34 0.33 0.34 0.31 0.31 0.27 0.27 0.27 0.30 0.32 0.30 0.30 0.30 0.38 0.30 0.32 0.38 0.40 0.45 0.45 0.41 0.42 0.35 0.36 0.42 0.41 0.39 0.40 0.40 0.35 0.35 0.37 0.42 0.41 0.51 0.52 0.43 0.39 0.35 0.36 0.34 0.32 0.33 0.33 0.31 0.35 0.32 0.31 0.34 0.32 0.30 0.30 0.29 0.26 0.23 0.21 0.21 0.20 0.17 0.14 0.15 0.18 0.18
0.64 0.65 0.67 0.67 0.68 0.67 0.68 0.68 0.69 0.73 0.75 0.74 0.59 0.53 0.42 0.38 0.38 0.37 0.45 0.43 0.38 0.37 0.37 0.35 0.35 0.30 0.33 0.28 0.30 0.29 0.28 0.25 0.27 0.29 0.30 0.28 0.29 0.35 0.33 0.34 0.37 0.41 0.43 0.45 0.42 0.44 0.46 0.45 0.41 0.44 0.43 0.40 0.42 0.40 0.42 0.40 0.41 0.46 0.50 0.49 0.53 0.42 0.37 0.37 0.37 0.33 0.32 0.33 0.33 0.31 0.34 0.32 0.31 0.31 0.30 0.29 0.29 0.27 0.26 0.25 0.23 0.23 0.20 0.19 0.17 0.15 0.18
0.64 0.65 0.67 0.68 0.68 0.67 0.67 0.68 0.71 0.73 0.77 0.63 0.57 0.53 0.55 0.52 0.54 0.53 0.43 0.36 0.38 0.40 0.39 0.35 0.34 0.31 0.31 0.28 0.30 0.29 0.29 0.28 0.31 0.29 0.34 0.32 0.29 0.31 0.32 0.37 0.40 0.45 0.43 0.43 0.45 0.49 0.49 0.50 0.49 0.48 0.47 0.40 0.46 0.43 0.42 0.49 0.42 0.46 0.54 0.54 0.50 0.47 0.40 0.42 0.40 0.36 0.33 0.34 0.33 0.33 0.33 0.33 0.32 0.33 0.31 0.29 0.29 0.27 0.26 0.25 0.25 0.22 0.20 0.20 0.19 0.18 0.15
0.64 0.64 0.66 0.67 0.67 0.67 0.67 0.68 0.70 0.73 0.77 0.64 0.59 0.49 0.58 0.59 0.63 0.60 0.49 0.35 0.40 0.40 0.40 0.37 0.32 0.26 0.31 0.33 0.32 0.30 0.30 0.33 0.36 0.30 0.34 0.35 0.37 0.35 0.36 0.40 0.40 0.40 0.42 0.42 0.45 0.50 0.52 0.53 0.55 0.54 0.53 0.54 0.51 0.52 0.51 0.51 0.48 0.46 0.51 0.60 0.51 0.48 0.48 0.38 0.39 0.36 0.34 0.38 0.36 0.35 0.34 0.33 0.31 0.29 0.31 0.35 0.32 0.31 0.29 0.28 0.26 0.25 0.23 0.20 0.19 0.18 0.21
0.65 0.64 0.65 0.67 0.68 0.68 0.68 0.69 0.71 0.74 0.74 0.62 0.58 0.55 0.58 0.53 0.49 0.52 0.52 0.37 0.36 0.38 0.34 0.32 0.30 0.31 0.35 0.37 0.35 0.37 0.35 0.34 0.34 0.29 0.30 0.36 0.37 0.40 0.41 0.39 0.35 0.36 0.37 0.44 0.53 0.56 0.58 0.60 0.60 0.59 0.56 0.55 0.53 0.51 0.50 0.53 0.53 0.52 0.50 0.54 0.54 0.54 0.52 0.45 0.42 0.36 0.35 0.39 0.42 0.40 0.35 0.29 0.24 0.29 0.36 0.38 0.36 0.34 0.29 0.28 0.27 0.27 0.26 0.24 0.23 0.22 0.24
0.65 0.65 0.65 0.67 0.67 0.68 0.69 0.69 0.71 0.73 0.75 0.72 0.70 0.60 0.61 0.62 0.58 0.54 0.45 0.32 0.31 0.38 0.36 0.32 0.32 0.34 0.34 0.38 0.37 0.36 0.34 0.35 0.35 0.37 0.31 0.33 0.35 0.37 0.39 0.40 0.39 0.31 0.44 0.55 0.55 0.59 0.60 0.60 0.59 0.58 0.54 0.51 0.51 0.52 0.51 0.48 0.49 0.52 0.55 0.54 0.53 0.52 0.53 0.50 0.44 0.39 0.37 0.40 0.42 0.38 0.30 0.29 0.32 0.37 0.39 0.39 0.38 0.40 0.39 0.34 0.30 0.29 0.30 0.26 0.26 0.26 0.24
0.67 0.65 0.66 0.68 0.68 0.69 0.69 0.71 0.72 0.75 0.78 0.76 0.69 0.58 0.64 0.68 0.58 0.52 0.46 0.37 0.31 0.35 0.33 0.33 0.36 0.36 0.38 0.37 0.36 0.35 0.36 0.37 0.37 0.39 0.36 0.33 0.33 0.36 0.38 0.37 0.37 0.39 0.49 0.51 0.55 0.54 0.48 0.46 0.48 0.49 0.48 0.48 0.49 0.47 0.46 0.45 0.44 0.48 0.53 0.58 0.55 0.53 0.51 0.53 0.43 0.42 0.42 0.39 0.40 0.33 0.32 0.40 0.46 0.45 0.41 0.41 0.40 0.41 0.41 0.38 0.37 0.37 0.44 0.46 0.47 0.35 0.40
0.67 0.67 0.66 0.68 0.69 0.70 0.71 0.73 0.74 0.75 0.76 0.75 0.66 0.64 0.66 0.66 0.55 0.51 0.49 0.38 0.33 0.38 0.38 0.34 0.33 0.34 0.35 0.36 0.36 0.37 0.38 0.34 0.35 0.38 0.34 0.37 0.35 0.37 0.40 0.43 0.48 0.53 0.49 0.50 0.50 0.50 0.43 0.46 0.40 0.42 0.41 0.43 0.40 0.38 0.40 0.43 0.43 0.42 0.47 0.55 0.62 0.60 0.56 0.54 0.46 0.44 0.36 0.38 0.39 0.39 0.43 0.41 0.44 0.43 0.44 0.45 0.41 0.41 0.41 0.35 0.41 0.54 0.54 0.46 0.45 0.49 0.50
0.68 0.67 0.68 0.68 0.70 0.71 0.72 0.73 0.74 0.74 0.74 0.75 0.71 0.68 0.67 0.65 0.62 0.55 0.57 0.47 0.34 0.37 0.39 0.29 0.33 0.36 0.37 0.36 0.35 0.33 0.32 0.33 0.32 0.32 0.38 0.41 0.37 0.41 0.46 0.49 0.51 0.51 0.55 0.48 0.46 0.46 0.41 0.42 0.37 0.37 0.37 0.35 0.30 0.33 0.44 0.39 0.45 0.46 0.46 0.52 0.58 0.63 0.53 0.55 0.49 0.45 0.44 0.39 0.37 0.39 0.37 0.33 0.38 0.45 0.54 0.54 0.59 0.56 0.56 0.46 0.48 0.66 0.64 0.60 0.57 0.53 0.51
0.68 0.68 0.69 0.70 0.70 0.71 0.73 0.74 0.73 0.73 0.72 0.74 0.70 0.65 0.66 0.68 0.69 0.63 0.56 0.47 0.41 0.29 0.33 0.40 0.43 0.41 0.36 0.34 0.34 0.31 0.30 0.32 0.33 0.32 0.32 0.35 0.38 0.42 0.51 0.54 0.55 0.52 0.53 0.49 0.48 0.42 0.40 0.35 0.34 0.35 0.33 0.36 0.43 0.41 0.36 0.44 0.39 0.44 0.48 0.52 0.55 0.60 0.59 0.55 0.49 0.52 0.42 0.40 0.37 0.37 0.34 0.35 0.42 0.50 0.52 0.57 0.63 0.61 0.57 0.46 0.42 0.72 0.71 0.68 0.69 0.64 0.63
0.68 0.70 0.71 0.72 0.72 0.73 0.75 0.75 0.74 0.74 0.74 0.76 0.68 0.68 0.64 0.73 0.65 0.61 0.53 0.51 0.46 0.35 0.42 0.44 0.43 0.41 0.37 0.33 0.35 0.34 0.38 0.34 0.37 0.30 0.27 0.29 0.35 0.41 0.45 0.49 0.52 0.51 0.51 0.47 0.47 0.43 0.40 0.36 0.37 0.38 0.42 0.45 0.37 0.37 0.46 0.44 0.41 0.41 0.49 0.52 0.50 0.50 0.54 0.53 0.46 0.47 0.45 0.43 0.39 0.37 0.40 0.39 0.49 0.54 0.55 0.58 0.69 0.65 0.54 0.39 0.44 0.78 0.83 0.83 0.75 0.67 0.64
0.71 0.72 0.72 0.72 0.73 0.73 0.74 0.74 0.74 0.75 0.75 0.76 0.72 0.65 0.62 0.71 0.72 0.69 0.58 0.50 0.43 0.39 0.42 0.45 0.43 0.38 0.34 0.37 0.36 0.39 0.40 0.39 0.40 0.42 0.35 0.34 0.36 0.42 0.41 0.44 0.40 0.47 0.53 0.42 0.45 0.41 0.38 0.38 0.33 0.35 0.34 0.45 0.45 0.45 0.36 0.44 0.41 0.42 0.42 0.46 0.47 0.49 0.52 0.51 0.45 0.45 0.46 0.43 0.45 0.45 0.44 0.59 0.61 0.65 0.65 0.63 0.72 0.64 0.45 0.38 0.58 0.89 0.89 0.86 0.79 0.75 0.73
0.70 0.71 0.72 0.72 0.72 0.71 0.71 0.72 0.73 0.73 0.73 0.74 0.74 0.68 0.65 0.69 0.72 0.68 0.58 0.50 0.46 0.35 0.42 0.49 0.51 0.45 0.46 0.47 0.41 0.41 0.40 0.38 0.39 0.35 0.33 0.31 0.37 0.48 0.46 0.45 0.47 0.37 0.48 0.41 0.46 0.41 0.38 0.38 0.44 0.40 0.36 0.42 0.45 0.38 0.47 0.42 0.43 0.49 0.49 0.44 0.45 0.48 0.50 0.52 0.51 0.45 0.43 0.45 0.45 0.47 0.52 0.72 0.71 0.72 0.73 0.76 0.62 0.46 0.47 0.85 1.03 1.01 0.91 0.90 0.86 0.78 0.78
0.69 0.69 0.70 0.70 0.70 0.70 0.71 0.71 0.72 0.73 0.74 0.74 0.71 0.59 0.62 0.68 0.69 0.67 0.54 0.45 0.48 0.43 0.44 0.46 0.48 0.43 0.48 0.42 0.38 0.37 0.38 0.39 0.41 0.37 0.34 0.29 0.41 0.46 0.42 0.35 0.48 0.44 0.41 0.49 0.38 0.44 0.39 0.35 0.37 0.43 0.37 0.39 0.44 0.49 0.43 0.46 0.53 0.49 0.49 0.57 0.50 0.53 0.46 0.46 0.49 0.50 0.46 0.46 0.46 0.47 0.39 0.65 0.73 0.78 0.70 0.79 0.60 0.69 0.93 1.03 1.00 0.99 0.96 0.89 0.89 0.85 0.84
0.70 0.70 0.70 0.70 0.70 0.70 0.71 0.71 0.71 0.72 0.73 0.73 0.71 0.62 0.57 0.67 0.67 0.71 0.70 0.60 0.50 0.40 0.38 0.50 0.52 0.50 0.49 0.46 0.47 0.47 0.43 0.39 0.40 0.36 0.39 0.39 0.46 0.43 0.31 0.31 0.40 0.40 0.38 0.44 0.36 0.40 0.42 0.37 0.39 0.39 0.44 0.44 0.46 0.44 0.38 0.41 0.45 0.58 0.56 0.57 0.56 0.68 0.52 0.51 0.53 0.62 0.48 0.45 0.44 0.47 0.59 0.71 0.77 0.72 0.62 0.77 0.86 1.00 1.08 1.00 0.94 1.02 0.99 0.93 0.86 0.85 0.89
0.70 0.70 0.70 0.70 0.70 0.70 0.70 0.71 0.71 0.71 0.71 0.72 0.69 0.64 0.53 0.62 0.68 0.71 0.70 0.68 0.54 0.44 0.44 0.50 0.53 0.48 0.49 0.51 0.51 0.50 0.46 0.44 0.46 0.49 0.43 0.39 0.45 0.46 0.46 0.46 0.45 0.45 0.48 0.51 0.44 0.43 0.49 0.50 0.50 0.44 0.41 0.46 0.53 0.43 0.47 0.41 0.38 0.52 0.65 0.60 0.49 0.75 0.62 0.68 0.55 0.71 0.60 0.57 0.64 0.80 0.89 0.95 0.93 0.85 0.92 1.00 1.08 1.08 1.07 1.03 1.01 0.96 0.96 1.00 0.88 0.87 0.91
0.69 0.69 0.69 0.69 0.69 0.70 0.70 0.69 0.70 0.70 0.70 0.71 0.69 0.62 0.55 0.59 0.63 0.72 0.69 0.56 0.59 0.58 0.58 0.53 0.52 0.51 0.52 0.52 0.56 0.56 0.55 0.55 0.52 0.51 0.49 0.42 0.39 0.44 0.43 0.42 0.42 0.53 0.53 0.55 0.47 0.48 0.50 0.51 0.45 0.52 0.48 0.53 0.49 0.45 0.49 0.50 0.45 0.53 0.49 0.67 0.65 0.78 0.81 0.82 0.72 0.68 0.80 0.79 0.86 0.89 0.93 0.93 1.01 1.01 0.97 0.96 1.01 1.06 1.08 1.03 0.97 0.98 0.98 0.96 0.91 0.93 0.94
0.69 0.69 0.68 0.69 0.69 0.70 0.70 0.70 0.70 0.69 0.69 0.69 0.68 0.62 0.59 0.62 0.65 0.64 0.61 0.59 0.51 0.43 0.46 0.49 0.45 0.38 0.41 0.42 0.50 0.56 0.58 0.57 0.57 0.56 0.57 0.52 0.38 0.37 0.44 0.46 0.50 0.51 0.50 0.53 0.60 0.52 0.53 0.56 0.54 0.57 0.45 0.55 0.58 0.46 0.40 0.41 0.48 0.59 0.52 0.54 0.63 0.73 0.80 0.71 0.59 0.71 0.62 0.54 0.78 0.84 0.93 0.96 1.11 1.06 1.04 1.03 1.04 1.02 1.01 0.98 0.98 1.01 1.01 1.00 1.00 0.99 0.97
0.68 0.68 0.68 0.68 0.69 0.70 0.70 0.70 0.70 0.69 0.69 0.68 0.68 0.68 0.67 0.63 0.67 0.67 0.57 0.44 0.45 0.42 0.32 0.35 0.39 0.46 0.50 0.54 0.54 0.52 0.54 0.56 0.60 0.58 0.57 0.56 0.49 0.40 0.38 0.50 0.56 0.50 0.48 0.52 0.60 0.58 0.60 0.50 0.53 0.52 0.45 0.58 0.58 0.46 0.60 0.47 0.48 0.62 0.47 0.53 0.56 0.57 0.79 0.62 0.67 0.68 0.62 0.62 0.79 0.90 0.99 1.03 1.15 1.14 0.99 0.90 0.95 0.98 1.01 1.01 1.02 1.02 1.02 1.00 0.98 0.98 0.96
0.67 0.67 0.67 0.68 0.68 0.69 0.70 0.70 0.69 0.68 0.68 0.68 0.68 0.62 0.59 0.58 0.67 0.71 0.66 0.61 0.58 0.51 0.35 0.31 0.36 0.51 0.57 0.51 0.49 0.54 0.59 0.59 0.58 0.56 0.56 0.53 0.53 0.53 0.51 0.51 0.50 0.54 0.51 0.53 0.56 0.52 0.52 0.52 0.55 0.55 0.49 0.52 0.65 0.53 0.51 0.58 0.56 0.62 0.53 0.53 0.64 0.67 0.69 0.54 0.66 0.62 0.71 0.77 0.82 0.86 0.92 0.96 1.03 1.17 1.14 1.00 0.93 0.91 0.91 0.95 0.95 0.96 0.93 0.95 0.97 0.96 0.93
0.68 0.67 0.66 0.66 0.67 0.67 0.68 0.68 0.69 0.69 0.68 0.68 0.66 0.64 0.62 0.64 0.70 0.68 0.61 0.59 0.47 0.37 0.42 0.35 0.40 0.45 0.50 0.46 0.49 0.51 0.52 0.53 0.55 0.56 0.54 0.53 0.52 0.55 0.55 0.51 0.48 0.48 0.46 0.45 0.49 0.49 0.52 0.53 0.54 0.49 0.54 0.54 0.64 0.57 0.57 0.54 0.54 0.51 0.51 0.60 0.71 0.65 0.55 0.67 0.64 0.56 0.57 0.62 0.76 0.85 0.71 0.71 0.87 1.02 1.08 1.04 0.98 0.93 0.90 0.91 0.89 0.92 0.91 0.92 0.89 0.89 0.90
0.70 0.70 0.69 0.68 0.67 0.68 0.67 0.67 0.67 0.67 0.67 0.68 0.66 0.63 0.66 0.63 0.67 0.70 0.74 0.69 0.55 0.39 0.39 0.38 0.38 0.44 0.53 0.43 0.50 0.53 0.55 0.56 0.54 0.49 0.48 0.50 0.51 0.53 0.52 0.50 0.48 0.43 0.43 0.42 0.41 0.45 0.46 0.43 0.44 0.57 0.58 0.59 0.55 0.51 0.62 0.64 0.60 0.53 0.52 0.57 0.67 0.59 0.62 0.64 0.56 0.58 0.58 0.76 0.87 0.94 0.95 0.91 0.94 1.02 1.09 1.09 1.07 0.98 0.90 0.86 0.85 0.86 0.89 0.90 0.88 0.85 0.85
0.68 0.69 0.69 0.69 0.69 0.68 0.68 0.68 0.67 0.66 0.65 0.64 0.62 0.60 0.62 0.68 0.72 0.76 0.77 0.81 0.73 0.58 0.51 0.49 0.51 0.45 0.34 0.40 0.49 0.48 0.54 0.55 0.52 0.51 0.49 0.45 0.46 0.47 0.46 0.44 0.42 0.45 0.45 0.46 0.46 0.46 0.46 0.47 0.54 0.50 0.51 0.66 0.56 0.49 0.50 0.43 0.45 0.41 0.47 0.60 0.66 0.69 0.74 0.69 0.71 0.76 0.79 0.85 0.89 0.98 0.98 0.95 1.00 1.07 1.12 1.12 1.11 1.03 0.93 0.91 0.88 0.87 0.87 0.89 0.88 0.87 0.83
0.67 0.68 0.69 0.70 0.70 0.69 0.69 0.68 0.69 0.68 0.68 0.63 0.58 0.54 0.49 0.56 0.74 0.71 0.76 0.76 0.73 0.64 0.45 0.38 0.31 0.36 0.49 0.48 0.45 0.50 0.55 0.61 0.56 0.52 0.47 0.45 0.41 0.41 0.42 0.42 0.44 0.48 0.48 0.47 0.48 0.43 0.49 0.51 0.54 0.59 0.62 0.72 0.53 0.53 0.45 0.49 0.46 0.48 0.63 0.68 0.72 0.75 0.77 0.80 0.83 0.76 0.73 0.89 0.94 1.01 1.05 1.06 1.08 1.11 1.15 1.18 1.16 1.12 1.01 0.94 0.90 0.88 0.90 0.90 0.86 0.84 0.85
0.68 0.69 0.70 0.70 0.71 0.72 0.71 0.69 0.67 0.67 0.66 0.61 0.56 0.45 0.43 0.39 0.59 0.75 0.73 0.67 0.72 0.59 0.49 0.47 0.38 0.45 0.41 0.50 0.50 0.57 0.59 0.60 0.56 0.57 0.53 0.51 0.50 0.44 0.41 0.42 0.45 0.48 0.45 0.47 0.48 0.51 0.55 0.49 0.54 0.57 0.63 0.65 0.60 0.52 0.47 0.47 0.47 0.49 0.62 0.68 0.71 0.72 0.76 0.78 0.85 0.88 0.90 0.94 1.02 1.10 1.08 1.04 1.09 1.08 1.07 1.11 1.10 1.10 1.04 1.00 0.98 0.96 0.94 0.91 0.89 0.87 0.85
0.70 0.70 0.70 0.70 0.70 0.71 0.72 0.71 0.68 0.67 0.64 0.56 0.48 0.45 0.46 0.50 0.59 0.69 0.70 0.69 0.67 0.58 0.50 0.41 0.38 0.38 0.37 0.43 0.55 0.63 0.64 0.62 0.60 0.56 0.53 0.53 0.46 0.47 0.43 0.41 0.42 0.47 0.47 0.49 0.54 0.56 0.53 0.59 0.55 0.58 0.56 0.66 0.63 0.54 0.53 0.50 0.46 0.49 0.66 0.70 0.75 0.77 0.82 0.83 0.85 0.91 1.00 1.07 1.04 0.98 0.96 0.97 1.00 0.93 0.95 1.06 1.08 1.06 1.01 0.97 0.97 0.97 0.96 0.93 0.92 0.91 0.90
0.70 0.70 0.70 0.71 0.71 0.72 0.72 0.73 0.73 0.72 0.66 0.68 0.72 0.72 0.70 0.68 0.68 0.68 0.68 0.67 0.63 0.56 0.59 0.47 0.37 0.38 0.37 0.43 0.52 0.60 0.62 0.58 0.55 0.55 0.48 0.52 0.46 0.48 0.41 0.42 0.45 0.46 0.55 0.51 0.51 0.49 0.59 0.58 0.61 0.54 0.62 0.73 0.60 0.58 0.53 0.49 0.53 0.66 0.73 0.78 0.79 0.82 0.84 0.90 0.95 1.00 1.06 1.09 1.10 0.94 0.88 0.92 0.98 1.03 1.05 1.07 1.04 1.01 0.98 0.95 0.95 0.94 0.91 0.86 0.84 0.84 0.84
0.71 0.71 0.71 0.72 0.74 0.75 0.75 0.74 0.75 0.75 0.75 0.69 0.60 0.65 0.75 0.77 0.75 0.74 0.73 0.69 0.60 0.61 0.60 0.48 0.40 0.39 0.39 0.55 0.46 0.63 0.71 0.54 0.50 0.54 0.43 0.49 0.53 0.48 0.43 0.43 0.46 0.45 0.58 0.52 0.60 0.58 0.63 0.65 0.59 0.60 0.68 0.61 0.67 0.57 0.48 0.55 0.67 0.71 0.78 0.82 0.85 0.87 0.92 0.96 1.00 1.01 1.04 1.06 1.09 1.12 1.12 1.12 1.12 1.09 1.07 1.01 0.98 1.00 0.99 0.97 0.92 0.85 0.84 0.83 0.82 0.83 0.83
0.71 0.72 0.73 0.74 0.76 0.79 0.81 0.80 0.75 0.70 0.61 0.63 0.64 0.71 0.77 0.76 0.75 0.74 0.71 0.64 0.51 0.50 0.51 0.51 0.51 0.41 0.39 0.43 0.44 0.53 0.72 0.61 0.50 0.54 0.46 0.51 0.64 0.55 0.58 0.48 0.52 0.45 0.58 0.68 0.58 0.59 0.59 0.61 0.69 0.54 0.50 0.65 0.59 0.51 0.54 0.61 0.68 0.75 0.79 0.81 0.85 0.89 0.92 0.94 0.98 1.01 1.04 1.07 1.03 1.09 1.13 1.11 1.07 1.02 1.00 0.99 0.99 0.99 0.97 0.95 0.93 0.88 0.82 0.81 0.81 0.81 0.82
0.70 0.72 0.75 0.78 0.79 0.82 0.82 0.82 0.78 0.70 0.65 0.62 0.66 0.79 0.81 0.81 0.79 0.79 0.79 0.76 0.66 0.55 0.51 0.50 0.52 0.44 0.45 0.38 0.39 0.52 0.68 0.58 0.63 0.61 0.58 0.57 0.55 0.69 0.64 0.57 0.47 0.54 0.68 0.59 0.53 0.59 0.56 0.72 0.61 0.49 0.61 0.52 0.51 0.57 0.64 0.71 0.72 0.77 0.80 0.82 0.87 0.89 0.91 0.96 0.99 0.98 1.00 1.05 1.03 1.05 1.07 1.06 1.03 1.02 1.01 0.99 0.98 0.96 0.96 0.94 0.93 0.92 0.88 0.85 0.83 0.84 0.84
0.74 0.76 0.79 0.80 0.80 0.75 0.66 0.66 0.75 0.73 0.67 0.76 0.82 0.84 0.85 0.84 0.86 0.87 0.84 0.78 0.80 0.80 0.61 0.55 0.48 0.47 0.48 0.47 0.56 0.62 0.66 0.48 0.63 0.57 0.54 0.52 0.52 0.66 0.62 0.55 0.49 0.59 0.58 0.56 0.57 0.56 0.65 0.76 0.61 0.53 0.55 0.53 0.59 0.70 0.76 0.79 0.81 0.82 0.82 0.86 0.91 0.96 0.99 1.02 1.03 1.00 0.97 1.02 1.04 1.05 1.06 1.05 1.04 1.05 1.02 0.98 0.98 0.99 0.94 0.90 0.90 0.89 0.85 0.85 0.86 0.86 0.87
0.78 0.79 0.76 0.69 0.65 0.56 0.55 0.65 0.70 0.79 0.85 0.84 0.86 0.78 0.77 0.78 0.66 0.69 0.71 0.65 0.72 0.74 0.65 0.64 0.51 0.54 0.61 0.56 0.48 0.67 0.67 0.56 0.65 0.55 0.57 0.64 0.57 0.55 0.64 0.58 0.60 0.59 0.47 0.52 0.58 0.72 0.66 0.62 0.57 0.55 0.59 0.71 0.77 0.82 0.84 0.86 0.89 0.91 0.90 0.92 0.95 0.99 1.02 1.04 1.03 0.99 0.95 0.93 0.95 0.99 1.01 1.01 0.99 1.01 0.99 0.98 0.98 0.96 0.96 0.97 0.96 0.95 0.93 0.92 0.91 0.91 0.92
0.78 0.75 0.73 0.70 0.61 0.56 0.57 0.65 0.84 0.87 0.86 0.88 0.86 0.70 0.63 0.71 0.63 0.55 0.57 0.64 0.66 0.56 0.63 0.60 0.52 0.61 0.59 0.56 0.59 0.75 0.66 0.58 0.56 0.59 0.51 0.63 0.56 0.49 0.62 0.49 0.60 0.60 0.50 0.51 0.60 0.76 0.54 0.57 0.59 0.59 0.57 0.67 0.72 0.78 0.87 0.91 0.91 0.93 0.95 0.97 0.99 0.99 1.00 1.01 1.03 0.99 0.96 0.94 0.96 0.98 0.98 0.93 0.94 0.96 0.99 0.98 0.98 0.99 0.98 0.97 0.95 0.94 0.94 0.95 0.94 0.94 0.95
0.74 0.65 0.62 0.63 0.61 0.65 0.77 0.86 0.89 0.85 0.83 0.71 0.75 0.69 0.56 0.66 0.55 0.48 0.65 0.54 0.53 0.59 0.64 0.53 0.64 0.63 0.64 0.58 0.56 0.58 0.81 0.66 0.53 0.52 0.56 0.59 0.73 0.54 0.60 0.59 0.62 0.57 0.46 0.47 0.57 0.74 0.56 0.49 0.57 0.57 0.55 0.67 0.73 0.85 0.88 0.90 0.89 0.92 0.96 0.99 1.00 0.98 0.97 0.98 0.99 1.02 1.01 1.02 1.02 1.01 1.04 1.04 1.05 1.05 1.02 0.99 0.96 0.93 0.94 0.96 0.97 0.99 1.00 1.00 1.01 1.00 0.97
0.71 0.70 0.68 0.63 0.69 0.76 0.80 0.85 0.88 0.84 0.71 0.64 0.63 0.64 0.59 0.51 0.59 0.61 0.57 0.51 0.51 0.55 0.68 0.63 0.66 0.63 0.70 0.70 0.68 0.59 0.78 0.83 0.75 0.75 0.68 0.56 0.74 0.69 0.58 0.51 0.67 0.53 0.49 0.48 0.65 0.68 0.62 0.56 0.55 0.53 0.57 0.70 0.77 0.84 0.88 0.89 0.88 0.90 0.94 0.97 0.97 0.97 0.97 0.97 0.99 1.01 1.02 1.01 1.01 1.02 1.05 1.06 1.06 1.06 1.08 1.09 1.05 1.01 0.99 0.99 1.00 1.01 1.01 1.01 1.01 1.03 1.07
0.79 0.75 0.77 0.83 0.82 0.82 0.81 0.77 0.75 0.69 0.68 0.69 0.55 0.47 0.50 0.52 0.60 0.58 0.58 0.47 0.48 0.57 0.61 0.64 0.56 0.60 0.62 0.71 0.69 0.73 0.73 0.84 0.81 0.75 0.66 0.56 0.69 0.62 0.57 0.60 0.64 0.52 0.45 0.61 0.71 0.65 0.60 0.49 0.51 0.53 0.66 0.75 0.83 0.86 0.86 0.85 0.88 0.90 0.93 0.95 0.96 0.95 0.93 0.93 0.96 0.99 1.02 1.01 1.01 1.01 1.04 1.06 1.05 1.05 1.05 1.05 1.03 1.03 1.02 1.00 0.99 0.99 0.99 1.02 1.05 1.07 1.08
0.92 0.91 0.88 0.79 0.75 0.72 0.73 0.59 0.62 0.63 0.50 0.49 0.49 0.43 0.49 0.45 0.48 0.47 0.52 0.62 0.69 0.62 0.63 0.76 0.69 0.78 0.78 0.85 0.75 0.81 0.75 0.86 0.73 0.70 0.66 0.60 0.78 0.73 0.60 0.57 0.57 0.47 0.56 0.73 0.65 0.56 0.51 0.50 0.50 0.60 0.75 0.77 0.83 0.85 0.88 0.89 0.90 0.90 0.92 0.95 0.95 0.95 0.93 0.91 0.94 0.96 0.99 1.00 0.99 1.00 1.03 1.04 1.03 1.04 1.06 1.05 1.05 1.03 1.05 1.05 1.03 1.01 1.02 1.02 1.03 1.06 1.08
0.84 0.83 0.74 0.71 0.65 0.62 0.64 0.45 0.61 0.57 0.50 0.52 0.46 0.38 0.43 0.42 0.45 0.53 0.50 0.54 0.61 0.59 0.66 0.62 0.64 0.68 0.59 0.74 0.69 0.72 0.79 0.81 0.82 0.75 0.69 0.76 0.67 0.59 0.59 0.51 0.53 0.66 0.78 0.60 0.57 0.49 0.52 0.58 0.63 0.70 0.76 0.78 0.79 0.81 0.85 0.87 0.89 0.89 0.89 0.92 0.95 0.97 0.98 0.98 0.99 0.99 0.98 1.00 1.02 1.03 1.04 1.03 1.04 1.05 1.06 1.06 1.05 1.04 1.06 1.09 1.11 1.11 1.11 1.11 1.10 1.12 1.14
0.67 0.63 0.62 0.58 0.52 0.57 0.56 0.44 0.62 0.53 0.42 0.47 0.53 0.48 0.49 0.43 0.47 0.52 0.50 0.64 0.65 0.58 0.69 0.72 0.69 0.67 0.62 0.72 0.78 0.75 0.76 0.66 0.83 0.68 0.58 0.68 0.60 0.62 0.56 0.53 0.64 0.66 0.56 0.49 0.52 0.54 0.55 0.54 0.68 0.75 0.76 0.77 0.80 0.83 0.85 0.87 0.89 0.88 0.90 0.93 0.94 0.96 0.97 0.97 0.99 1.00 0.99 1.00 1.00 1.01 0.99 1.00 1.00 1.01 1.02 1.03 1.05 1.07 1.06 1.04 1.08 1.08 1.07 1.08 1.08 1.09 1.11
0.60 0.53 0.52 0.46 0.43 0.53 0.52 0.46 0.50 0.45 0.53 0.58 0.55 0.57 0.56 0.58 0.58 0.56 0.66 0.72 0.66 0.66 0.65 0.68 0.70 0.69 0.63 0.72 0.66 0.63 0.73 0.70 0.62 0.63 0.69 0.68 0.57 0.52 0.66 0.74 0.70 0.53 0.51 0.51 0.47 0.46 0.50 0.60 0.68 0.74 0.82 0.83 0.85 0.88 0.90 0.92 0.95 0.95 0.93 0.88 0.90 0.93 0.97 0.99 1.01 1.00 0.99 0.99 0.99 1.01 1.01 1.02 1.02 1.02 1.01 1.02 1.02 1.02 1.03 1.04 1.05 1.03 1.02 1.01 1.01 1.02 1.06
0.60 0.57 0.55 0.52 0.45 0.51 0.61 0.47 0.49 0.55 0.58 0.61 0.65 0.67 0.66 0.67 0.70 0.70 0.75 0.76 0.69 0.71 0.73 0.74 0.71 0.69 0.63 0.67 0.71 0.73 0.73 0.71 0.59 0.63 0.70 0.53 0.53 0.61 0.74 0.59 0.48 0.51 0.45 0.44 0.46 0.50 0.58 0.68 0.77 0.82 0.85 0.87 0.89 0.90 0.91 0.92 0.94 0.94 0.94 0.97 0.97 0.95 0.98 0.98 0.98 0.98 1.00 1.00 0.99 0.99 0.99 0.99 0.99 0.99 0.98 0.96 0.96 0.97 0.98 0.99 1.00 1.00 0.99 0.97 0.99 1.01 1.02
0.46 0.53 0.54 0.41 0.41 0.48 0.47 0.54 0.63 0.64 0.68 0.67 0.67 0.72 0.74 0.74 0.67 0.63 0.70 0.74 0.72 0.71 0.67 0.69 0.64 0.66 0.64 0.74 0.76 0.61 0.65 0.69 0.62 0.62 0.68 0.61 0.66 0.57 0.54 0.53 0.51 0.54 0.55 0.50 0.51 0.62 0.68 0.76 0.79 0.82 0.87 0.91 0.90 0.87 0.86 0.88 0.90 0.90 0.91 0.92 0.92 0.92 0.93 0.93 0.96 0.98 1.00 0.99 0.96 0.95 0.96 0.95 0.94 0.93 0.90 0.88 0.87 0.89 0.91 0.91 0.91 0.91 0.92 0.93 0.94 0.96 0.97
0.54 0.50 0.44 0.44 0.50 0.53 0.54 0.59 0.61 0.56 0.60 0.66 0.70 0.70 0.68 0.66 0.65 0.68 0.74 0.78 0.73 0.68 0.71 0.68 0.65 0.64 0.55 0.64 0.61 0.59 0.55 0.63 0.54 0.53 0.64 0.58 0.51 0.47 0.47 0.43 0.46 0.45 0.56 0.62 0.62 0.69 0.73 0.81 0.86 0.87 0.86 0.87 0.89 0.88 0.87 0.89 0.88 0.88 0.90 0.87 0.88 0.89 0.90 0.91 0.94 0.97 0.99 0.98 0.95 0.92 0.91 0.91 0.91 0.89 0.87 0.85 0.83 0.83 0.87 0.88 0.88 0.88 0.88 0.86 0.85 0.86 0.88
0.47 0.45 0.49 0.46 0.48 0.51 0.57 0.57 0.53 0.51 0.57 0.60 0.63 0.64 0.69 0.68 0.68 0.72 0.81 0.77 0.75 0.74 0.73 0.73 0.73 0.63 0.58 0.60 0.51 0.55 0.56 0.62 0.60 0.60 0.55 0.50 0.52 0.55 0.52 0.45 0.49 0.50 0.56 0.67 0.69 0.73 0.80 0.83 0.84 0.82 0.84 0.87 0.91 0.91 0.88 0.88 0.90 0.88 0.86 0.87 0.88 0.87 0.89 0.92 0.91 0.90 0.90 0.91 0.91 0.91 0.91 0.90 0.86 0.85 0.84 0.82 0.81 0.82 0.82 0.82 0.82 0.82 0.82 0.83 0.84 0.81 0.80
0.50 0.46 0.45 0.52 0.49 0.48 0.53 0.46 0.47 0.48 0.52 0.56 0.59 0.62 0.68 0.67 0.68 0.69 0.78 0.77 0.72 0.66 0.62 0.56 0.58 0.58 0.55 0.54 0.51 0.45 0.52 0.66 0.59 0.54 0.53 0.52 0.59 0.56 0.50 0.48 0.54 0.63 0.67 0.74 0.77 0.80 0.81 0.83 0.82 0.80 0.81 0.82 0.86 0.89 0.91 0.90 0.89 0.90 0.91 0.90 0.89 0.88 0.86 0.86 0.88 0.89 0.88 0.88 0.88 0.88 0.85 0.83 0.82 0.82 0.82 0.82 0.80 0.78 0.77 0.78 0.80 0.79 0.79 0.80 0.81 0.80 0.81
0.42 0.39 0.41 0.48 0.54 0.55 0.55 0.57 0.58 0.58 0.59 0.60 0.61 0.64 0.68 0.67 0.72 0.73 0.78 0.75 0.65 0.58 0.54 0.61 0.58 0.53 0.51 0.47 0.54 0.61 0.65 0.60 0.54 0.56 0.51 0.58 0.65 0.55 0.55 0.60 0.64 0.70 0.73 0.74 0.76 0.80 0.82 0.82 0.82 0.82 0.82 0.83 0.84 0.88 0.91 0.91 0.89 0.88 0.87 0.86 0.86 0.84 0.84 0.84 0.83 0.82 0.82 0.82 0.82 0.82 0.81 0.81 0.80 0.79 0.78 0.75 0.74 0.72 0.70 0.70 0.72 0.76 0.76 0.77 0.77 0.80 0.82
Wind_Speed
49 48 48 48 47 47 46 46 45 44 44 42 41 40 39 39 39 39 39 38 37 36 36 35 35 36 37 37 38 38 37 36 36 36 36 35 35 36 36 36 36 35 34 35 35 34 34 35 33 29 29 31 32 31 30 30 31 31 31 32 33 31 30 30 29 29 28 27 26 28 30 30 30 30 29 30 31 30 26 23 20 22 24 23 22 23 24
49 49 48 48 48 47 46 46 45 44 43 42 41 40 39 39 40 39 37 37 37 36 36 36 35 36 37 38 39 38 38 37 36 35 34 34 34 34 34 35 34 35 35 35 36 34 33 36 36 32 29 28 29 32 34 33 31 31 30 30 31 32 32 30 28 26 28 28 26 27 31 31 29 29 29 30 32 32 29 26 23 23 25 24 21 22 22
49 48 48 48 47 47 46 45 44 43 42 41 40 39 38 39 38 36 35 35 36 36 36 36 36 37 38 39 38 37 37 36 35 34 34 34 34 33 34 35 34 34 35 35 36 33 30 33 35 34 33 30 27 26 29 33 33 33 33 31 31 33 33 32 31 28 28 30 28 25 28 30 29 28 29 31 32 32 31 28 26 24 26 27 25 23 23
48 48 48 47 46 46 44 44 42 41 40 39 38 38 37 36 35 33 32 33 34 34 34 35 35 35 36 37 37 37 38 38 37 37 36 36 36 35 35 36 34 34 34 35 36 34 31 31 33 32 32 33 30 25 24 28 31 33 36 35 31 32 34 35 37 36 32 31 30 26 25 28 31 31 30 30 30 31 31 30 29 27 24 25 28 26 24
48 48 47 46 45 44 43 42 41 40 38 37 37 36 35 34 33 32 31 31 32 33 33 33 32 33 34 35 37 38 39 40 39 39 38 38 38 37 37 36 33 33 33 34 36 35 33 33 33 32 33 35 35 30 27 27 26 27 33 37 33 31 34 37 40 40 36 32 31 30 28 28 31 32 32 32 30 30 31 32 34 29 24 25 27 25 24
48 47 47 46 44 43 42 41 39 38 37 35 34 34 33 33 32 32 32 32 32 32 33 34 34 35 36 36 37 38 39 39 39 39 39 40 39 38 39 39 35 33 33 34 35 35 33 34 34 32 33 35 35 34 31 28 25 23 27 34 35 33 34 36 38 40 39 36 33 33 33 31 30 31 32 33 33 32 32 33 33 31 29 30 28 24 24
47 47 46 45 43 42 41 39 38 37 35 34 32 32 31 31 31 31 31 32 33 33 34 35 35 36 36 36 36 38 38 38 38 37 38 40 39 38 40 42 39 37 36 35 36 35 33 33 34 33 33 33 33 34 33 29 25 24 25 28 32 34 35 36 37 38 39 39 37 34 34 34 32 31 32 32 33 35 34 33 31 30 31 32 31 29 29
47 46 45 44 42 41 39 38 36 35 34 32 30 30 29 29 29 29 29 30 31 32 32 32 32 33 33 33 34 35 37 38 37 36 36 37 38 37 39 42 40 39 39 38 39 38 35 34 35 34 34 33 32 32 32 29 26 27 28 27 28 32 35 35 35 34 36 39 40 37 36 36 33 31 31 33 33 34 34 33 30 29 29 30 30 31 32
46 45 44 42 41 39 37 35 33 32 31 29 28 27 27 27 26 26 26 26 27 27 28 28 28 28 28 29 29 30 32 33 34 34 36 36 36 36 38 39 39 38 40 40 41 42 40 39 38 37 36 36 35 35 33 30 28 27 27 27 26 27 31 34 33 31 32 35 38 39 39 37 36 34 32 33 32 31 30 31 31 30 29 28 29 30 30
44 43 41 39 37 35 33 31 29 28 26 25 24 24 23 23 23 22 22 23 22 22 23 24 25 25 24 24 25 27 28 29 30 31 32 33 34 34 34 36 37 37 39 41 42 43 44 43 42 41 40 40 40 40 37 34 32 30 27 27 27 26 28 33 34 31 31 32 33 37 38 35 37 39 34 29 28 28 28 28 29 31 30 28 28 29 27
40 39 37 34 32 31 29 27 25 23 22 21 21 21 20 20 19 19 19 20 20 20 20 21 21 21 21 21 22 23 25 26 26 27 27 29 31 32 32 33 35 35 37 39 42 44 45 46 44 43 43 42 42 42 40 37 36 33 29 27 28 27 27 31 35 33 32 32 29 30 34 34 36 38 34 29 28 26 27 27 26 26 27 27 27 27 25
36 34 32 30 28 27 25 23 22 20 19 19 19 19 18 18 17 17 17 18 18 18 18 18 19 20 20 21 21 21 22 23 24 25 27 27 29 31 31 31 32 33 33 35 39 41 43 44 44 44 44 43 42 42 41 38 36 34 31 29 29 28 25 27 33 33 31 32 28 26 29 31 31 31 33 33 32 28 26 26 26 24 22 24 26 26 25
32 31 29 27 25 24 22 20 19 17 17 16 17 17 17 16 16 16 15 16 16 16 16 17 18 19 20 20 20 20 21 22 22 23 24 25 26 28 29 28 29 31 31 33 35 37 38 40 42 43 44 42 42 42 40 39 37 34 32 29 28 27 25 25 31 34 32 31 30 28 28 26 24 25 29 31 30 29 26 25 24 23 20 20 21 23 23
29 28 26 24 23 21 19 17 16 16 15 15 15 16 16 16 15 15 14 14 14 15 15 16 15 16 18 18 18 18 19 20 20 20 20 22 23 24 25 26 26 26 28 30 31 31 33 35 36 38 41 40 40 41 38 36 36 35 32 29 26 26 25 23 26 32 34 33 31 29 28 27 24 24 25 27 27 27 26 25 23 21 20 19 18 19 21
26 25 24 22 21 19 17 16 15 15 15 15 15 15 15 15 15 14 14 13 13 14 14 14 14 14 15 16 17 17 17 17 17 17 18 19 20 20 21 23 24 24 25 26 27 28 30 32 32 33 35 36 37 38 35 32 32 33 32 29 26 25 24 23 23 27 32 32 30 28 27 28 28 26 24 25 25 24 25 25 23 21 20 20 19 18 19
24 23 22 21 19 17 16 15 15 15 14 14 13 13 14 13 13 14 14 13 13 12 12 13 14 15 15 16 16 16 15 15 15 15 15 16 17 17 17 18 20 21 22 23 24 25 27 30 31 31 33 34 35 36 35 31 29 30 28 26 25 24 23 23 23 25 29 29 29 29 28 27 28 27 26 24 23 23 24 24 23 23 23 21 21 20 19
23 22 21 20 18 17 15 15 15 14 13 12 12 12 12 12 12 13 13 13 13 14 14 15 16 16 15 14 15 15 13 14 14 14 13 14 15 16 16 15 17 18 19 20 22 23 24 27 30 31 32 34 34 36 36 33 29 28 26 24 23 22 21 22 23 23 25 27 27 28 27 26 26 26 26 25 22 22 24 25 24 25 25 22 22 22 22
22 21 20 19 18 17 16 15 14 14 13 12 11 11 12 12 12 12 13 13 13 13 14 16 16 16 15 15 15 15 14 14 14 13 14 14 13 13 14 14 14 16 16 17 20 21 21 23 27 30 31 33 34 35 36 35 32 28 25 24 23 21 19 21 22 22 23 24 26 27 25 25 25 23 23 24 23 22 25 26 25 25 24 23 23 23 23
21 20 20 19 18 17 16 15 14 13 12 11 11 11 12 12 12 12 13 13 13 14 14 15 16 17 17 16 17 16 16 15 14 14 14 13 11 13 15 13 12 13 15 16 18 20 20 21 23 27 30 31 32 33 35 36 34 30 26 24 24 22 20 19 19 21 22 22 24 25 24 24 24 22 21 22 23 24 25 25 24 24 23 22 22 23 23
21 20 19 19 18 17 15 14 13 12 11 11 11 12 12 12 13 13 13 13 14 15 15 16 17 18 17 17 17 17 16 16 15 14 14 13 12 12 12 11 10 12 14 15 15 18 20 20 21 24 28 31 32 32 33 35 36 33 29 25 24 24 23 21 18 19 21 21 22 23 24 24 23 22 23 23 24 25 25 24 23 23 22 21 21 21 22
21 20 19 18 17 16 15 14 13 12 12 12 12 12 13 13 12 12 13 13 14 14 14 14 15 17 17 17 18 18 17 17 16 15 14 14 12 11 10 10 10 11 13 13 13 15 17 18 19 21 24 28 31 32 31 32 34 34 32 29 25 24 24 23 21 20 20 20 21 22 23 24 24 23 25 26 26 25 25 24 24 23 22 21 21 20 21
21 20 19 18 17 16 15 13 13 12 12 12 12 12 13 13 12 12 12 13 14 14 15 16 17 18 19 19 19 20 20 20 19 17 15 14 13 13 12 12 10 10 12 13 13 14 15 15 17 19 21 24 29 32 31 30 30 30 31 31 28 25 24 24 24 23 22 21 21 22 22 22 22 23 24 24 24 24 23 23 23 22 21 20 19 20 20
21 20 19 18 17 16 15 14 13 12 12 12 12 12 12 12 12 12 12 12 13 14 16 17 17 17 17 18 18 18 19 19 19 18 16 15 15 14 13 12 10 9 11 13 13 14 14 14 15 17 19 20 24 29 30 30 29 27 28 30 29 27 26 27 26 25 24 22 21 20 20 20 21 24 25 24 23 24 22 21 20 20 19 19 18 18 18
21 20 19 18 17 16 15 14 13 12 11 11 10 10 10 10 10 10 10 10 11 12 12 13 13 13 14 15 15 15 15 16 17 17 17 16 15 13 12 11 10 9 10 13 14 13 13 13 14 16 18 18 20 24 27 28 27 26 26 29 30 28 27 28 27 25 25 24 20 19 19 19 20 23 25 24 23 23 22 21 20 19 18 17 17 17 17
21 20 19 18 17 16 15 14 13 11 10 9 8 7 7 7 7 7 8 9 9 10 10 11 12 13 14 14 13 13 13 13 14 15 16 16 16 14 13 11 11 9 10 13 15 14 12 12 13 14 16 17 19 21 24 25 26 26 26 27 28 28 28 28 28 26 26 26 24 21 21 19 18 19 23 25 23 22 21 20 20 19 17 16 16 16 16
21 20 19 18 17 16 15 14 12 11 10 8 7 6 6 7 7 7 8 9 10 10 10 10 10 11 11 11 11 11 11 12 12 14 15 16 16 16 14 12 12 11 9 11 15 16 13 12 12 13 14 16 18 19 22 23 24 25 26 26 27 27 28 29 29 28 27 27 25 22 22 22 19 17 19 22 23 22 21 20 18 17 16 16 15 15 16
21 20 19 18 17 16 15 13 12 11 10 9 8 7 7 7 7 7 8 8 8 8 8 8 8 10 11 12 12 11 10 10 11 13 14 16 17 16 15 13 12 12 10 11 14 15 14 12 13 13 13 15 17 18 20 22 23 24 25 25 25 25 26 27 29 30 28 26 23 21 22 25 23 20 18 19 21 21 20 19 18 17 17 16 15 15 15
21 21 19 18 17 16 15 14 12 11 10 9 8 8 7 7 7 7 7 7 6 7 7 8 10 11 11 10 9 8 8 8 9 10 12 15 16 17 16 13 12 11 11 10 11 13 14 13 14 14 14 14 16 18 18 19 21 23 24 25 25 24 24 25 27 29 30 27 24 22 22 23 24 22 19 19 20 20 19 19 18 18 17 17 16 15 15
22 21 19 18 17 16 15 14 13 12 11 10 9 8 7 6 6 6 5 5 5 6 8 9 9 8 7 6 7 7 7 7 7 8 10 13 15 16 15 13 11 10 10 9 9 11 12 12 13 15 16 16 16 17 17 17 19 22 23 25 25 24 23 24 25 27 29 29 26 25 23 21 21 21 19 17 18 19 19 19 19 18 18 17 16 16 16
21 20 19 18 17 16 15 14 13 12 11 9 8 7 6 5 5 5 4 4 4 5 6 6 6 5 5 6 6 6 5 4 5 6 8 10 12 14 14 13 12 10 9 9 9 10 10 9 10 14 17 17 16 17 17 17 18 19 20 22 23 23 22 23 24 26 29 29 28 28 27 23 20 19 18 17 16 17 18 19 18 17 16 16 15 15 16
21 20 19 18 17 17 16 14 13 12 10 9 7 6 5 5 5 6 6 6 6 6 5 5 6 5 5 4 3 3 3 4 4 6 8 9 10 12 13 14 13 11 10 9 9 10 10 9 9 12 15 16 16 17 18 17 17 17 18 19 20 20 21 23 25 27 29 28 28 28 28 26 23 20 18 17 15 15 16 17 17 16 15 14 14 14 14
20 19 18 18 17 17 16 15 14 12 10 8 6 5 5 5 6 6 6 6 7 6 6 6 6 5 5 4 4 5 4 4 3 4 7 8 9 10 11 13 13 11 10 8 8 9 10 9 9 11 14 15 15 16 18 18 17 15 15 16 17 17 18 20 23 26 27 26 25 26 27 26 25 23 20 18 15 13 14 15 15 15 14 14 14 14 13
20 19 19 18 17 16 16 15 13 11 9 8 7 6 6 6 6 6 6 6 5 5 5 5 6 6 5 5 6 7 5 3 1 4 7 9 9 9 10 12 12 11 9 7 7 8 9 8 8 10 13 14 14 15 17 19 18 16 14 14 14 14 15 16 19 23 24 23 22 23 24 24 23 23 22 19 15 13 12 13 13 13 13 13 13 13 12
20 19 18 18 17 16 15 14 13 11 9 8 8 7 7 6 6 6 6 6 6 6 6 5 6 6 6 6 6 6 5 2 3 5 7 8 8 8 8 10 10 9 7 7 7 8 8 8 8 10 11 13 14 15 17 18 18 16 14 13 12 12 12 14 17 21 22 22 20 18 18 19 20 19 19 17 14 13 12 11 11 11 11 11 11 11 11
20 18 17 16 16 16 15 14 13 12 11 10 9 9 9 8 8 7 7 6 6 7 7 6 6 7 7 7 7 7 5 2 3 5 7 8 7 7 7 7 7 7 6 6 7 7 7 8 9 10 11 11 13 15 16 16 16 16 15 13 12 11 11 13 17 19 21 22 20 16 15 16 17 16 15 14 13 12 12 11 10 10 9 9 9 9 9
19 17 16 16 16 15 14 13 12 12 12 11 11 10 10 9 8 8 7 6 6 7 7 7 7 7 8 7 7 7 5 3 3 5 6 7 7 7 7 7 7 6 5 5 5 6 7 8 9 10 10 11 11 13 14 15 15 15 14 12 11 10 11 13 16 17 18 19 18 17 17 17 16 14 14 13 12 11 11 10 9 9 9 8 8 7 8
18 17 16 16 15 14 14 14 13 12 12 12 11 11 10 10 9 8 7 7 6 6 7 8 8 7 7 7 7 6 5 3 3 4 5 6 7 7 6 6 7 6 5 4 5 5 6 7 8 8 9 10 11 12 13 14 13 13 13 12 10 9 10 12 14 15 16 16 16 17 17 16 15 14 14 13 12 11 10 9 9 9 8 8 8 8 8
19 17 16 15 15 14 14 14 14 14 14 13 12 11 11 10 10 9 9 8 8 7 7 8 8 7 7 7 6 5 4 4 4 5 6 7 7 7 7 7 7 6 6 5 5 6 6 6 6 6 7 8 10 12 13 13 12 12 11 11 10 9 10 12 12 13 14 14 14 15 15 14 14 14 14 13 12 11 11 10 10 9 9 9 9 9 9
19 17 16 15 14 14 14 15 15 16 15 14 13 12 12 11 11 11 10 9 9 9 8 9 9 8 7 6 6 4 5 6 6 7 8 9 8 8 7 7 7 7 5 4 5 5 6 6 6 6 6 7 9 11 11 12 12 11 11 11 10 10 11 12 12 11 11 11 12 12 12 12 12 12 12 12 12 11 11 11 10 10 9 9 9 9 9
19 18 17 16 16 16 16 16 16 16 15 14 13 13 13 12 12 12 12 11 11 10 10 10 10 9 7 6 6 6 7 8 8 9 9 9 9 8 8 7 6 5 4 4 5 6 7 7 8 8 8 8 9 10 11 11 11 11 11 11 11 11 11 11 11 11 11 11 11 10 10 10 10 10 9 10 11 11 10 10 9 9 9 9 9 9 9
19 18 18 17 17 18 18 17 16 15 15 14 13 13 13 12 12 12 12 12 12 12 12 11 11 10 8 7 7 7 8 8 7 8 8 8 7 7 7 7 6 6 6 7 8 8 8 9 10 9 9 9 9 10 11 11 11 12 12 11 10 10 10 10 9 10 11 11 10 9 9 9 9 8 8 8 8 9 9 9 8 7 7 7 7 7 8
18 17 17 17 17 17 17 17 17 16 15 14 13 12 12 12 12 12 12 11 12 13 13 12 11 10 9 8 7 8 8 8 8 8 8 8 8 8 7 7 8 9 10 11 11 10 10 11 11 9 9 9 11 12 12 12 11 12 11 10 10 10 10 10 10 10 10 10 10 9 9 8 8 7 7 7 7 7 7 7 7 6 5 5 5 4 4
18 17 16 16 16 16 17 18 19 19 17 16 14 13 12 12 12 12 12 12 12 12 12 11 10 9 9 9 8 8 9 9 9 9 9 9 9 9 9 10 11 12 12 12 12 12 12 12 11 11 11 11 12 13 12 11 11 11 10 10 10 10 10 10 10 9 9 10 10 9 9 8 8 7 7 7 6 6 6 6 6 5 4 4 3 3 3
18 16 15 15 16 17 18 18 19 20 19 17 16 14 13 13 13 12 12 12 12 11 11 11 11 10 10 10 10 10 10 10 10 10 10 10 10 10 11 13 13 13 13 14 15 14 14 14 14 14 15 14 14 13 13 12 12 11 10 9 9 9 9 9 9 9 9 10 9 9 9 9 8 7 7 6 6 6 5 5 5 4 4 3 3 2 2
16 15 15 16 17 18 19 19 19 20 20 18 16 14 13 13 12 11 12 12 11 10 10 11 11 10 10 10 10 11 10 10 11 11 11 12 12 13 13 14 14 15 16 16 16 15 16 16 15 15 16 15 14 14 14 13 12 11 11 10 10 10 10 10 9 9 9 9 9 9 9 8 8 7 6 6 6 5 5 4 4 4 4 3 3 2 2
15 15 15 16 17 18 19 19 19 20 20 18 16 14 12 11 10 10 10 10 10 11 11 10 10 10 10 11 11 11 10 10 11 12 12 13 14 14 14 14 15 16 17 17 16 16 17 16 14 14 15 15 15 15 14 14 13 12 12 12 12 12 11 11 10 9 9 9 9 9 9 8 7 7 6 6 5 5 5 4 4 4 3 3 3 2 2
14 15 15 15 16 18 19 19 19 19 18 17 16 15 13 12 11 10 10 10 10 11 11 10 9 10 10 11 12 12 11 11 12 12 12 13 14 15 15 16 16 16 16 17 17 16 15 14 14 15 16 16 16 15 14 14 14 14 14 14 15 14 13 12 11 10 9 9 9 9 8 8 7 6 6 6 5 5 4 4 4 4 3 2 2 1 1
14 14 15 15 15 17 18 18 18 18 17 16 17 17 16 14 13 13 12 12 11 11 11 10 9 10 11 12 13 13 13 13 13 13 13 13 14 14 14 16 17 16 16 17 16 15 14 14 15 16 17 16 15 14 13 12 12 12 13 14 15 14 13 13 13 12 10 9 9 9 8 7 7 6 6 6 5 5 4 4 4 3 3 3 2 1 1
12 13 13 14 14 15 16 17 17 17 17 17 19 20 19 17 16 15 14 13 12 12 11 10 10 11 12 12 14 14 15 14 14 13 13 14 14 14 14 15 16 16 16 15 14 13 13 14 15 16 16 15 14 14 13 13 12 11 11 11 12 12 11 11 11 11 10 9 9 8 8 7 6 6 6 6 5 5 5 4 4 3 3 2 2 2 2
11 12 13 14 15 16 17 18 18 18 17 18 20 21 21 19 18 17 16 15 13 12 12 12 12 12 12 13 14 15 16 15 14 14 14 14 15 15 15 16 16 15 14 14 13 14 14 14 15 15 14 14 14 14 14 14 13 13 13 12 11 10 10 10 10 9 9 8 8 7 6 6 6 6 5 5 5 4 4 4 4 3 2 2 2 2 2
11 12 13 15 16 16 17 18 19 19 18 17 19 20 20 19 18 18 18 16 15 14 14 14 13 13 13 14 14 14 14 15 16 16 15 14 13 13 14 15 14 14 13 14 14 14 14 14 14 13 13 13 13 13 13 12 12 13 13 12 12 11 11 11 10 9 8 8 7 7 6 6 5 5 4 4 4 3 3 3 3 3 2 1 1 1 1
11 12 13 14 16 16 17 18 18 19 18 18 18 19 19 19 18 18 18 18 17 17 16 15 14 14 14 14 14 14 14 14 15 16 16 14 13 12 13 13 13 12 12 12 13 13 13 13 13 12 12 12 12 12 11 11 11 11 11 11 11 11 11 10 10 9 9 8 8 7 7 7 6 5 5 4 3 2 2 2 2 2 2 2 2 2 2
Wind_Direction
305 304 302 301 300 299 298 297 295 294 293 291 289 288 283 279 277 276 274 273 273 268 262 261 260 260 260 260 259 259 257 257 256 255 254 254 252 250 248 248 249 248 249 249 248 247 246 244 244 246 242 238 236 234 231 229 228 229 232 230 227 226 229 231 234 236 237 238 234 228 224 223 225 228 227 226 227 230 233 237 235 232 236 236 237 247 250
305 304 302 301 299 298 297 296 294 293 292 290 288 286 282 279 278 276 273 270 267 264 262 261 260 261 262 261 259 258 257 256 256 254 254 253 251 250 247 246 248 248 248 247 244 245 246 243 241 242 243 241 239 238 235 232 230 230 230 229 226 225 227 226 228 232 233 233 233 227 221 222 226 227 225 225 226 228 232 236 236 236 236 233 235 246 249
306 304 302 300 299 298 296 295 294 292 291 289 287 284 281 280 277 273 272 269 264 262 261 262 262 262 263 261 260 259 256 255 256 256 256 253 251 251 249 247 250 249 247 245 241 241 245 244 241 241 241 239 237 241 240 235 233 233 229 225 225 226 227 225 224 226 227 226 228 226 221 222 226 227 225 224 224 225 228 232 233 237 238 234 235 245 250
306 305 303 301 299 298 296 295 293 292 290 288 286 283 281 280 277 273 271 268 263 262 263 262 262 262 263 261 260 260 258 256 256 257 257 254 252 253 250 249 252 251 249 247 242 241 245 243 239 239 240 236 232 239 243 234 234 239 233 225 225 228 227 226 226 227 228 228 229 228 224 222 224 225 225 225 225 224 225 229 233 236 238 237 238 242 247
307 306 305 303 300 298 296 295 293 291 289 287 284 282 279 277 275 273 272 268 264 263 263 262 262 264 265 263 261 262 261 259 258 256 255 255 255 253 249 249 252 251 250 248 244 244 246 242 240 242 241 236 235 238 237 233 239 248 237 226 224 228 228 226 227 228 230 230 230 229 227 226 225 223 224 226 227 225 224 228 233 234 235 240 242 238 239
308 307 306 304 302 300 297 294 291 289 288 285 283 280 277 274 273 273 272 269 266 264 264 264 265 266 267 265 264 264 263 262 260 257 255 256 256 253 250 249 251 251 248 246 245 245 245 241 242 244 241 238 237 236 232 230 239 247 237 228 226 229 230 227 227 228 229 230 229 229 229 231 229 226 223 224 226 227 228 231 233 232 234 241 242 236 237
309 308 307 305 303 300 297 294 290 288 286 285 282 280 276 275 274 273 272 270 268 267 267 267 267 267 267 266 265 265 264 263 261 258 257 255 253 253 252 251 252 251 247 244 243 242 242 241 241 242 243 240 236 233 230 228 234 239 236 231 229 230 230 227 226 227 228 228 229 228 229 231 232 229 225 224 226 228 230 234 234 233 235 240 240 238 239
310 309 308 305 303 300 297 294 290 287 285 284 281 279 277 276 275 274 273 272 269 269 268 267 266 265 266 265 264 264 264 263 261 258 256 255 253 252 254 253 252 251 247 244 242 240 239 241 240 241 243 239 232 228 226 228 235 238 232 229 230 232 229 225 224 226 227 226 227 228 229 230 232 231 226 225 227 228 230 233 235 235 237 239 238 239 241
310 309 307 305 303 301 297 294 290 287 284 282 280 278 276 275 275 275 274 271 269 269 268 265 264 263 263 263 264 265 264 264 263 259 255 255 254 253 254 253 250 249 247 244 243 240 239 240 239 239 240 238 233 228 226 230 237 236 230 228 231 234 230 223 220 224 226 224 223 225 227 229 232 232 229 226 226 228 229 230 231 234 237 238 237 238 241
310 310 308 306 304 301 298 295 291 287 283 279 277 277 276 275 274 273 272 269 267 268 267 265 263 261 260 262 264 265 264 264 264 261 256 254 254 254 254 252 248 247 246 244 242 241 240 239 239 237 236 236 234 231 229 232 234 232 230 229 228 232 235 226 218 220 225 224 222 222 222 226 230 230 228 227 227 228 230 231 230 231 234 236 237 239 240
312 311 310 308 306 304 300 296 292 286 281 276 274 274 275 274 273 272 271 269 267 268 268 266 263 261 261 263 266 267 268 267 265 262 258 256 255 254 254 253 249 246 245 244 242 241 240 239 238 236 235 235 234 231 231 232 231 227 228 229 227 232 239 230 217 216 221 221 222 221 218 223 230 228 226 228 229 229 232 233 231 231 234 236 237 239 240
315 314 313 311 309 307 303 298 293 286 280 275 273 273 272 273 273 272 270 270 270 270 269 266 264 263 262 264 267 269 270 270 269 267 263 260 258 256 253 252 250 245 244 244 243 241 239 239 238 235 233 233 231 230 230 231 229 226 225 228 229 232 239 231 217 214 216 216 218 220 219 223 229 226 223 226 229 231 234 235 234 236 241 241 239 238 239
317 317 316 314 313 310 305 299 294 288 281 276 273 271 271 271 271 271 270 271 271 270 270 269 267 265 264 265 269 272 271 273 274 271 267 263 261 258 253 252 250 247 245 244 242 239 238 237 235 233 231 229 228 228 228 228 228 226 224 226 228 228 233 231 218 213 213 213 215 219 222 225 227 223 220 223 227 230 232 234 234 235 238 240 239 237 234
318 319 319 318 316 313 307 302 297 291 284 278 274 272 271 269 268 268 270 270 269 269 272 273 268 265 265 268 271 273 274 275 274 272 269 265 262 260 257 254 252 250 248 244 238 235 235 234 233 232 229 228 227 225 224 224 225 224 224 224 223 222 224 225 219 214 212 213 215 221 225 226 226 224 221 220 222 224 224 226 230 233 231 229 232 234 232
319 321 321 320 318 315 310 304 299 293 287 281 276 273 271 268 266 266 267 267 269 271 269 264 263 267 271 272 273 274 275 276 275 271 269 267 264 261 260 257 254 252 249 243 235 233 233 232 229 228 226 224 224 223 220 220 220 219 220 222 220 219 219 219 218 215 213 212 215 219 223 224 223 223 223 220 218 217 218 222 229 235 234 229 227 231 234
322 322 322 322 320 316 312 307 301 296 290 283 277 273 269 267 265 264 265 265 265 267 265 263 268 273 275 274 273 275 275 277 277 273 269 269 267 263 262 260 256 252 248 241 234 232 233 229 225 224 223 220 221 221 218 217 216 215 217 221 219 217 216 215 217 216 212 211 214 217 221 223 223 222 223 223 220 219 221 226 232 236 236 231 227 230 234
325 324 323 322 321 318 314 310 305 299 293 284 277 272 269 268 266 265 266 264 261 264 267 269 271 272 272 272 271 273 274 274 275 271 266 269 272 268 265 264 258 250 244 239 232 228 230 228 223 222 222 219 219 221 219 217 216 215 217 220 218 215 213 213 217 218 212 210 216 221 222 224 224 223 224 223 221 221 224 228 231 234 234 231 230 232 236
328 327 324 322 320 317 314 311 307 302 295 286 278 273 270 270 269 267 267 265 264 266 268 267 267 267 268 271 272 272 272 272 272 270 267 268 268 266 266 266 258 245 237 235 230 225 226 227 223 221 221 218 218 220 220 218 216 215 216 216 215 213 212 212 216 219 214 212 217 221 224 226 226 225 227 227 223 222 224 226 230 232 232 233 233 236 237
332 329 327 324 321 317 313 310 307 303 296 287 279 274 273 273 271 269 267 265 264 268 270 269 270 271 270 271 272 271 270 271 270 270 269 266 264 266 266 262 254 241 231 229 228 224 224 226 223 221 220 218 216 218 219 218 216 215 214 214 213 212 210 211 214 215 213 214 218 221 225 228 225 223 226 227 223 221 223 226 229 230 230 232 234 237 238
335 332 330 327 325 321 317 312 308 302 295 288 282 278 276 276 274 270 268 267 267 270 272 270 269 270 270 270 271 271 270 269 267 266 265 260 263 271 266 253 246 238 227 224 225 223 222 225 224 221 220 218 216 217 220 220 218 216 214 212 211 211 211 212 213 211 212 218 220 219 223 229 228 225 227 227 223 222 224 226 230 232 231 232 234 237 240
337 335 334 331 329 327 323 318 312 305 297 290 286 282 280 279 277 273 270 269 270 271 273 273 272 272 272 270 271 271 270 269 266 264 261 257 254 256 254 250 247 234 223 223 225 222 221 224 224 221 220 218 215 215 218 220 217 216 215 213 212 211 210 211 212 208 209 217 220 220 226 233 233 228 228 228 224 222 224 227 230 234 234 235 237 239 242
340 338 337 335 332 329 326 321 316 310 303 296 290 285 282 280 279 276 273 272 270 270 272 276 277 276 274 272 271 269 267 265 263 259 257 254 247 241 245 250 244 226 222 224 223 221 221 224 224 220 218 217 214 213 216 216 214 214 214 214 213 210 208 211 213 212 212 216 221 226 232 238 235 225 220 222 221 219 221 224 228 233 235 235 236 238 240
343 342 341 339 336 333 329 325 319 313 307 303 296 288 285 283 280 278 276 275 275 276 277 278 278 276 275 274 273 269 264 259 255 250 249 250 246 240 241 242 235 224 223 221 217 220 223 224 221 217 214 213 212 212 214 215 215 215 214 214 213 211 211 214 215 217 217 215 217 226 234 241 240 226 216 216 219 219 220 222 224 228 231 231 234 236 238
347 346 345 344 342 339 336 332 328 321 314 309 303 295 289 286 282 281 280 279 281 285 284 281 277 275 277 278 276 272 265 256 250 245 242 242 240 236 235 234 227 222 223 219 214 216 222 221 215 212 211 211 210 211 213 213 214 215 215 215 215 216 218 219 219 220 220 216 217 225 231 240 244 230 216 215 218 218 218 221 223 227 229 231 234 237 239
350 349 349 348 347 345 343 341 337 333 327 322 316 308 299 292 287 286 286 285 288 292 292 289 283 281 282 283 278 271 264 257 251 246 240 235 230 227 228 230 223 219 225 223 216 213 218 216 210 209 210 209 208 210 211 211 212 213 214 214 216 218 221 222 221 221 221 221 225 231 233 239 247 237 221 217 218 218 218 221 224 227 231 233 236 240 242
353 352 351 351 350 350 349 348 346 343 340 335 330 321 309 300 295 291 290 291 293 292 290 289 289 289 290 290 285 277 269 260 253 247 241 232 225 222 225 228 226 225 230 226 217 214 214 211 206 207 209 208 207 208 209 210 211 212 213 214 217 219 220 221 222 223 223 223 228 235 235 237 247 249 232 222 220 221 222 224 227 230 232 233 236 241 242
356 355 354 354 353 352 351 350 349 346 342 337 332 324 313 306 301 296 293 295 298 298 293 291 295 299 299 295 289 281 273 263 253 244 236 227 221 219 220 223 224 225 228 227 220 215 213 211 209 207 208 212 212 210 210 211 211 212 212 213 215 218 219 219 220 221 222 223 227 232 231 231 238 247 244 231 226 224 225 227 230 231 233 234 236 240 243
357 357 357 356 356 356 354 353 351 348 345 340 334 328 320 314 309 303 296 293 294 299 302 301 302 304 302 297 289 280 272 264 252 240 230 221 217 216 216 218 220 219 219 222 219 211 209 213 215 212 210 214 214 211 210 210 211 213 212 211 211 215 217 216 217 219 222 226 230 232 231 231 234 240 243 240 233 227 224 226 227 229 234 238 240 242 246
357 358 358 359 359 358 357 355 353 351 349 346 343 339 333 327 324 320 312 302 297 302 309 310 308 310 311 304 297 291 281 263 244 232 224 217 213 212 211 213 215 214 212 215 213 206 205 212 217 215 212 212 212 211 211 210 212 214 213 210 211 214 215 215 216 218 222 226 229 230 229 229 229 232 236 238 234 227 225 227 229 232 237 241 242 245 248
357 358 360 1 1 1 360 358 358 357 356 356 356 355 353 357 6 8 5 355 338 327 328 328 329 334 326 308 301 304 300 275 244 227 219 213 211 210 208 207 208 210 212 212 207 202 204 211 216 213 209 208 209 211 211 210 211 211 209 209 214 218 219 220 220 219 221 225 228 226 224 223 225 228 232 233 231 227 226 228 231 234 236 239 243 247 249
358 359 360 1 2 3 2 2 2 3 4 8 14 20 24 31 35 31 24 18 7 354 348 345 344 347 346 331 320 324 317 294 260 229 215 208 206 206 204 203 202 205 210 210 205 200 200 204 208 206 203 203 207 209 208 207 208 206 203 206 214 219 222 224 224 221 221 223 222 219 218 222 227 230 232 234 235 230 226 227 229 231 234 238 243 247 249
359 360 360 360 0 1 2 4 5 6 8 12 17 22 21 16 11 4 1 2 1 360 1 2 2 16 34 30 9 354 337 313 270 216 199 192 190 194 197 197 199 203 206 206 202 200 200 201 205 203 199 199 203 205 205 205 206 204 203 205 209 212 218 224 224 220 218 218 215 213 216 222 227 228 229 233 237 234 227 225 225 227 230 234 239 243 246
0 1 0 0 1 3 4 6 7 8 10 9 4 0 357 354 353 355 2 9 11 12 16 15 14 23 25 3 351 354 353 337 197 169 169 171 175 184 191 193 196 200 203 201 196 195 196 198 199 197 195 196 200 204 204 203 203 204 204 205 205 208 216 221 218 212 210 210 209 210 214 219 221 222 223 227 231 230 224 220 219 221 225 228 231 235 238
0 2 4 6 8 10 11 13 16 19 23 24 22 22 22 19 14 13 20 26 23 18 18 17 12 12 10 1 2 14 22 52 137 144 150 156 161 172 181 185 189 195 198 197 194 193 193 191 189 190 192 194 198 201 200 199 199 199 200 202 205 208 214 215 207 200 197 197 197 202 209 211 211 212 214 216 219 219 217 215 213 212 213 219 224 228 231
1 4 8 11 12 12 15 21 28 32 35 34 32 30 29 27 23 18 19 24 24 20 19 18 11 8 11 14 21 28 37 72 135 146 149 147 144 152 164 173 181 189 190 190 191 193 192 189 187 188 190 190 193 197 196 194 195 197 196 197 202 206 210 210 200 191 189 192 194 198 200 198 197 200 203 204 207 209 208 210 208 203 201 208 216 223 229
7 9 11 12 13 16 21 26 32 33 31 29 27 25 21 16 12 10 9 12 16 14 13 14 13 13 15 19 23 27 34 63 135 152 153 150 147 151 161 173 183 188 184 181 184 186 185 185 185 186 188 188 190 193 193 191 191 190 188 189 195 201 205 205 196 185 184 190 195 197 195 192 193 197 200 200 203 203 200 200 202 200 199 203 212 222 231
13 14 15 17 20 24 27 29 30 28 23 20 20 19 14 10 9 11 13 13 12 11 11 14 16 17 15 13 13 19 33 67 125 145 149 154 159 161 164 171 179 180 176 169 165 162 163 169 175 182 189 190 187 187 188 186 183 181 182 184 188 192 193 191 184 176 175 181 188 192 193 192 192 195 196 197 200 202 200 202 205 207 209 214 222 232 240
13 16 19 22 25 28 29 28 26 22 18 18 19 20 21 22 23 24 25 25 24 25 25 21 19 18 17 15 15 27 57 89 109 121 131 143 152 156 155 154 153 153 152 149 145 145 150 157 163 172 186 190 184 180 178 175 174 177 181 182 180 177 176 175 172 170 171 175 179 185 190 193 194 196 198 200 202 205 207 211 215 218 221 225 231 237 245
18 22 25 25 26 26 25 23 21 19 18 22 26 28 31 32 30 30 33 34 31 30 29 25 19 18 22 27 33 51 81 95 97 101 111 120 126 129 131 132 131 133 137 139 137 140 146 148 146 146 154 166 170 169 168 169 172 175 178 177 173 168 164 165 168 171 173 176 177 181 188 193 196 197 198 200 204 207 211 214 218 221 225 230 235 241 247
26 27 27 27 27 26 23 21 21 22 24 29 33 32 33 35 35 34 36 37 35 33 32 29 27 29 36 44 51 67 87 98 98 96 100 106 111 111 109 111 118 124 128 128 129 131 134 133 129 126 129 141 150 154 156 159 163 166 168 170 168 163 160 163 168 172 176 177 175 173 177 183 187 189 193 198 202 206 209 213 219 225 231 238 245 251 253
28 27 26 23 22 21 21 22 24 27 29 31 33 32 32 36 37 34 33 34 34 33 32 33 35 42 51 60 67 74 83 91 95 94 94 99 106 104 97 97 104 107 110 114 117 117 118 118 116 117 122 128 132 136 140 144 147 150 153 156 158 159 159 161 163 167 172 174 171 165 163 165 172 181 188 194 202 209 214 217 223 231 238 242 248 256 258
23 22 19 16 17 19 23 25 26 26 27 27 27 28 31 33 32 30 29 30 29 29 32 37 40 45 52 60 69 74 77 83 90 91 89 90 94 92 88 89 95 98 103 108 110 108 105 103 103 110 120 121 119 121 128 135 140 142 142 141 144 151 155 154 153 155 161 166 168 167 165 164 166 173 180 185 192 201 206 209 215 222 230 233 238 250 261
17 18 18 20 23 26 27 27 26 28 30 29 27 26 28 30 30 30 30 30 30 32 37 40 40 42 52 62 68 70 74 80 87 87 83 83 86 86 85 87 92 97 102 104 102 100 98 96 95 102 111 114 113 114 119 127 134 138 139 139 140 141 143 145 146 148 152 158 162 165 167 167 166 165 169 174 178 183 189 197 205 212 217 221 227 238 250
18 21 26 30 29 27 27 27 26 28 30 30 27 24 21 21 23 25 27 30 35 38 40 39 40 46 57 67 69 70 74 81 85 84 81 81 84 86 88 89 92 96 100 102 99 96 95 95 96 99 103 105 107 108 110 115 121 127 131 136 138 137 134 134 137 140 144 150 155 158 161 164 164 163 162 165 168 171 178 186 190 191 193 197 202 211 223
17 21 27 30 28 26 27 28 27 27 27 27 26 24 20 16 17 20 23 28 35 37 36 39 46 54 62 67 68 68 74 82 84 82 80 81 83 84 88 93 95 97 99 100 98 93 93 96 98 99 99 101 102 101 102 105 109 114 120 124 126 126 126 127 131 136 138 139 142 146 149 153 158 160 160 158 156 155 157 162 165 165 168 173 178 183 191
18 21 25 27 28 28 29 29 26 26 26 26 25 23 19 14 12 12 13 19 28 32 33 39 51 60 65 68 66 65 72 84 86 83 82 84 83 83 88 95 97 96 94 94 91 89 91 93 93 93 96 99 98 97 99 101 101 104 111 116 117 118 119 121 124 129 130 131 132 135 137 140 145 149 149 147 143 139 136 137 140 144 150 159 168 175 183
19 21 24 28 29 29 30 29 25 23 24 25 24 21 18 16 14 14 16 22 29 32 33 40 56 67 70 70 67 68 76 86 86 83 85 87 85 85 88 92 93 92 91 90 88 88 89 88 86 87 92 96 96 96 98 98 97 97 100 105 110 113 114 113 113 115 118 122 124 125 127 130 133 135 137 138 134 128 124 124 126 129 134 139 142 143 150
17 21 26 30 31 29 28 27 23 22 24 28 27 26 27 29 28 27 30 34 38 39 39 46 61 73 75 74 72 73 78 83 83 83 87 90 88 87 87 88 88 89 90 90 88 87 87 86 86 88 90 91 91 92 93 93 94 96 98 101 105 108 107 105 104 106 110 115 119 120 121 124 126 128 131 133 132 129 125 123 121 124 127 128 128 126 126
18 25 28 31 32 31 28 26 26 28 32 34 33 33 35 36 35 33 34 37 41 45 48 54 67 77 79 77 76 75 76 78 80 82 84 85 84 84 86 86 87 89 89 87 85 85 85 86 87 88 88 87 87 89 90 88 89 93 97 101 106 110 109 106 105 105 106 110 114 116 116 118 119 120 120 121 122 122 121 119 116 117 117 118 120 122 125
28 33 32 30 30 29 27 27 30 34 37 37 37 38 39 39 37 38 40 42 45 52 58 64 73 81 84 82 79 77 75 75 76 78 80 81 81 81 82 83 86 89 88 84 82 83 85 86 86 86 85 85 86 88 88 87 87 88 90 92 96 101 103 103 103 104 104 106 109 111 110 107 107 110 114 116 115 112 110 112 115 116 115 113 110 105 103
35 38 35 32 30 28 27 28 30 33 36 37 36 37 39 40 41 42 45 48 53 60 64 68 75 83 85 81 76 75 75 75 73 73 76 80 82 80 79 81 86 90 88 82 80 82 84 84 84 84 84 85 86 86 85 84 85 87 87 87 88 91 95 98 98 99 99 99 102 104 101 97 97 102 107 108 103 95 93 94 96 100 104 94 58 54 73
37 36 34 32 29 27 27 28 29 30 34 36 35 35 37 41 43 45 50 54 58 61 64 68 74 80 81 77 74 75 77 76 72 71 74 78 80 81 82 84 88 90 87 82 79 80 80 80 81 82 82 82 82 83 83 83 82 83 83 82 82 83 87 90 90 89 88 88 89 91 89 87 88 93 97 97 94 93 93 85 72 67 71 67 52 50 64